Location: Balmoral
(33.0667°S, 151.5833°E)
Time: 02:44:27
(UTC+00:00)

Cosmos 2219 Rocket - Pass Details

Date: 18 September 2020
Orbit: 827 x 847 km, 71.0° (Epoch: 23 October)

Event Time Altitude Azimuth Distance (km) Brightness Sun altitude
Rises 18:22:07 0° 206° (SSW) 3,398 5.2 -18.6°
Reaches altitude 10° 18:24:35 10° 209° (SSW) 2,460 4.4 -18.1°
Maximum altitude 18:30:07 59° 287° (WNW) 963 2.2 -17.0°
Drops below altitude 10° 18:35:37 10° 5° (N) 2,442 4.6 -15.8°
Sets 18:38:04 0° 9° (N) 3,371 5.3 -15.3°
